Theta_e
297 299 307 311 315 316 315 313 312 311 310 308 306 304 304 302 301 302 301 300 299 298
298 300 309 314 317 315 314 311 310 309 307 306 305 304 302 301 298 299 298 299 298 299
301 303 311 315 314 311 311 309 308 307 305 303 302 302 301 300 297 297 296 295 293 296
302 307 312 313 311 310 307 306 306 304 300 295 294 298 299 298 297 296 296 295 295 295
305 309 309 309 307 307 306 305 303 302 300 299 298 299 298 297 297 296 295 296 294 293
295 294 296 297 301 304 303 303 301 301 300 300 299 299 299 298 296 297 296 295 295 292
288 289 289 293 291 297 300 299 300 301 300 299 298 296 295 293 291 290 290 293 296 295
287 287 288 288 289 289 290 292 294 294 292 291 294 292 290 291 292 292 291 291 292 293
286 285 285 286 287 287 287 288 289 291 289 290 289 294 294 292 290 289 290 290 291 292
281 283 284 285 285 285 286 287 287 287 288 287 289 294 293 291 288 289 290 290 290 289
278 279 280 282 283 284 285 285 286 286 287 287 289 293 292 290 289 288 289 289 289 289
276 277 278 278 280 282 283 283 283 284 284 285 286 291 291 288 287 287 287 287 288 289
275 275 276 277 278 281 282 282 283 282 283 284 284 289 290 288 286 286 285 286 286 286
274 274 276 276 277 279 279 280 281 282 282 282 283 287 289 290 286 285 285 285 285 285
Wind_Speed
20 13 17 16 13 12 14 13 16 16 17 17 17 16 16 14 12 12 10 15 12 8
18 19 18 17 15 11 13 13 17 16 16 16 17 17 16 11 14 11 9 11 8 8
16 18 19 13 16 8 13 16 17 17 16 15 14 13 16 13 13 14 8 8 10 5
16 19 18 14 11 15 12 16 17 18 16 15 13 14 11 10 15 15 12 10 10 8
17 20 16 15 14 15 14 12 15 14 17 17 17 14 12 11 12 16 15 15 12 9
9 11 10 12 14 13 12 13 11 13 14 14 15 18 15 16 12 15 16 16 16 12
9 14 11 10 11 9 13 11 13 13 12 15 13 11 11 13 12 7 8 12 14 13
10 18 12 13 12 12 11 9 8 11 8 7 9 9 10 10 12 15 12 11 11 13
15 20 15 14 14 15 13 11 10 9 9 8 5 11 12 8 8 6 9 11 11 10
16 18 14 14 16 16 13 11 13 12 11 10 6 10 12 13 5 6 7 8 8 7
16 16 16 14 16 14 13 12 11 11 13 12 9 10 9 8 5 4 6 7 8 8
14 16 15 15 14 13 10 13 13 11 14 11 11 13 13 8 3 4 4 2 5 7
14 16 15 14 14 11 12 13 10 13 12 12 10 15 11 8 3 4 3 3 3 7
15 14 14 12 12 12 12 12 11 13 11 10 10 8 11 7 3 2 3 2 2 2
Wind_Direction
227 229 233 220 205 216 173 167 168 165 169 167 160 166 168 168 159 173 181 181 182 174
227 224 229 207 204 203 164 160 161 159 160 161 158 162 159 169 152 163 162 169 162 173
229 222 218 186 190 164 156 153 158 159 153 152 148 150 164 161 162 151 154 140 134 124
232 220 185 169 164 159 148 157 154 149 148 135 131 138 146 151 157 152 152 150 144 162
222 200 158 157 159 155 151 147 139 153 148 144 141 144 141 168 166 155 163 174 151 160
145 104 113 141 149 144 135 131 135 141 150 150 169 147 164 177 181 181 175 175 184 170
82 91 75 101 74 121 133 133 142 151 159 157 151 149 167 159 152 152 161 173 182 182
70 81 72 74 85 75 78 93 110 123 102 109 139 133 141 160 169 162 169 170 183 184
62 68 57 76 77 77 65 81 85 82 107 106 90 138 149 146 152 136 156 178 179 182
49 60 56 65 75 65 71 75 80 74 79 78 83 131 137 137 136 148 154 164 170 172
44 50 49 54 59 61 57 57 74 74 75 71 58 104 128 121 128 143 151 163 164 174
40 56 56 56 55 56 68 59 55 51 55 57 46 53 100 98 101 103 105 159 164 165
35 47 52 46 49 55 59 66 62 63 52 47 45 34 62 80 79 96 112 105 134 155
39 47 44 44 42 49 57 63 61 65 53 47 35 34 61 73 68 96 85 54 76 63